TimeEST,TemperatureF,Dew PointF,Humidity,Sea Level PressureIn,VisibilityMPH,Wind Direction,Wind SpeedMPH,Gust SpeedMPH,PrecipitationIn,Events,Conditions,WindDirDegrees,DateUTC
12:51 AM,8.1,-2.0,64,30.33,9.0,WSW,11.5,-,0.00,Snow,Light Snow,240,2013-01-23 05:51:00
1:51 AM,7.0,-2.0,67,30.33,9.0,WSW,12.7,-,0.00,Snow,Light Snow,240,2013-01-23 06:51:00
2:02 AM,7.0,-0.9,70,30.27,7.0,WSW,11.5,-,0.00,Snow,Light Snow,240,2013-01-23 07:02:00
2:28 AM,7.0,-2.0,67,30.28,9.0,WSW,13.8,-,0.00,Snow,Light Snow,240,2013-01-23 07:28:00
2:51 AM,7.0,-2.0,67,30.34,9.0,SW,12.7,-,0.00,Snow,Light Snow,230,2013-01-23 07:51:00
3:02 AM,7.0,-2.0,67,30.28,8.0,SW,11.5,-,0.00,Snow,Light Snow,230,2013-01-23 08:02:00
3:46 AM,6.8,-2.2,67,30.28,9.0,WSW,12.7,-,0.00,Snow,Light Snow,240,2013-01-23 08:46:00
3:51 AM,7.0,-2.0,67,30.33,9.0,WSW,12.7,-,0.00,,Overcast,240,2013-01-23 08:51:00
4:46 AM,6.8,-0.4,72,30.28,4.0,SW,13.8,-,0.00,Snow,Light Snow,230,2013-01-23 09:46:00
4:51 AM,7.0,-0.0,73,30.33,4.0,WSW,12.7,-,0.00,Snow,Light Snow,240,2013-01-23 09:51:00
5:36 AM,7.0,-0.0,73,30.27,8.0,SW,10.4,-,0.00,Snow,Light Snow,220,2013-01-23 10:36:00
5:51 AM,7.0,-0.0,73,30.33,8.0,SW,10.4,-,0.00,Snow,Light Snow,230,2013-01-23 10:51:00
6:51 AM,7.0,-0.0,73,30.34,9.0,SW,11.5,-,0.00,,Overcast,230,2013-01-23 11:51:00
7:51 AM,7.0,-0.0,73,30.34,10.0,SW,9.2,-,N/A,,Mostly Cloudy,230,2013-01-23 12:51:00
8:51 AM,8.1,-0.0,70,30.34,10.0,SW,11.5,-,N/A,,Mostly Cloudy,230,2013-01-23 13:51:00
9:51 AM,9.0,1.9,73,30.34,10.0,SW,9.2,-,N/A,,Mostly Cloudy,220,2013-01-23 14:51:00
10:51 AM,12.0,3.0,67,30.33,10.0,SW,10.4,-,N/A,,Scattered Clouds,230,2013-01-23 15:51:00
11:51 AM,12.9,3.9,67,30.32,10.0,WSW,10.4,-,N/A,,Mostly Cloudy,250,2013-01-23 16:51:00
12:51 PM,14.0,5.0,67,30.28,10.0,West,10.4,-,N/A,,Overcast,260,2013-01-23 17:51:00
1:06 PM,14.0,5.0,67,30.22,10.0,SW,9.2,-,N/A,,Overcast,220,2013-01-23 18:06:00
1:51 PM,15.1,6.1,68,30.25,4.0,SW,9.2,-,0.00,Snow,Light Snow,220,2013-01-23 18:51:00
2:02 PM,15.1,6.1,68,30.19,5.0,SW,10.4,-,0.00,Snow,Light Snow,220,2013-01-23 19:02:00
2:12 PM,15.1,6.1,68,30.19,5.0,North,-9999.0,-,0.00,Snow,Light Snow,0,2013-01-23 19:12:00
2:20 PM,15.1,6.1,68,30.18,6.0,SW,10.4,-,0.00,Snow,Light Snow,220,2013-01-23 19:20:00
2:51 PM,15.8,6.8,68,30.18,4.0,SSW,10.4,-,N/A,Snow,Light Snow,200,2013-01-23 19:51:00
3:16 PM,16.0,6.1,65,30.18,9.0,WSW,12.7,-,0.00,Snow,Light Snow,240,2013-01-23 20:16:00
3:51 PM,15.8,6.8,68,30.17,4.0,South,11.5,-,N/A,Snow,Light Snow,190,2013-01-23 20:51:00
4:51 PM,16.0,3.9,59,30.20,9.0,SW,9.2,-,0.00,Snow,Light Snow,220,2013-01-23 21:51:00
5:29 PM,15.1,5.0,64,30.13,9.0,SSW,12.7,-,0.00,,Overcast,200,2013-01-23 22:29:00
5:51 PM,15.1,7.0,70,30.18,8.0,SSW,10.4,-,0.00,Snow,Light Snow,210,2013-01-23 22:51:00
6:51 PM,15.1,9.0,77,30.18,8.0,SSW,6.9,-,0.00,Snow,Light Snow,210,2013-01-23 23:51:00
7:51 PM,15.1,10.9,84,30.17,2.5,SSW,6.9,-,0.00,Snow,Light Snow,200,2013-01-24 00:51:00
7:59 PM,15.1,10.9,84,30.12,1.5,SSW,4.6,-,0.00,Snow,Light Snow,210,2013-01-24 00:59:00
8:07 PM,15.1,10.9,84,30.12,2.5,SSW,5.8,-,0.00,Snow,Light Snow,210,2013-01-24 01:07:00
8:20 PM,15.1,10.9,84,30.12,2.5,SSW,5.8,-,0.00,Snow,Light Snow,210,2013-01-24 01:20:00
8:26 PM,15.1,10.9,84,30.12,3.0,SSW,5.8,-,0.01,Snow,Light Snow,200,2013-01-24 01:26:00
8:51 PM,15.1,10.9,84,30.16,4.0,SSW,6.9,-,0.01,Snow,Light Snow,210,2013-01-24 01:51:00
9:51 PM,15.1,12.0,88,30.15,4.0,SSW,5.8,-,0.00,Snow,Light Snow,200,2013-01-24 02:51:00
10:51 PM,15.1,12.0,88,30.14,4.0,SSW,5.8,-,0.01,Snow,Light Snow,200,2013-01-24 03:51:00
11:51 PM,12.9,10.0,88,30.14,8.0,South,4.6,-,0.00,Snow,Light Snow,190,2013-01-24 04:51:00